IGO352 VOBL-OMDB

Flight info

Callsign IGO352
Flight time N/A
Altitude 38000
Route OPAMO7B OPAMO P574 PAROK Q899 ITURA M762 VAXAS/N0363F240 M762 MIVEK P574 IMPED
Aircraft A20N/M-SDE2E3FGHIRWXY/LB1

Departure

Time 2026-05-04 15:35
Airport Kempegowda International Airport Bengaluru (VOBL)

Arrival

Time N/A
Airport Dubai International Airport (OMDB)
Time Latitude Longitude Altitude Speed Heading
2026-05-04 15:15 13.20169 77.70795 2961 ft 0 kts 180°
2026-05-04 15:26 13.20202 77.70795 2947 ft 2 kts 181°
2026-05-04 15:26 13.20219 77.70795 2948 ft 2 kts 180°
2026-05-04 15:26 13.20251 77.70794 2948 ft 2 kts 168°
2026-05-04 15:27 13.20263 77.70784 2953 ft 2 kts 97°
2026-05-04 15:27 13.20264 77.70769 2953 ft 0 kts 89°
2026-05-04 15:30 13.20265 77.70805 2952 ft 14 kts 89°
2026-05-04 15:30 13.20261 77.71047 2955 ft 9 kts 89°
2026-05-04 15:31 13.20367 77.71177 2950 ft 18 kts
2026-05-04 15:31 13.20496 77.71186 2952 ft 18 kts 24°
2026-05-04 15:32 13.20520 77.71619 2941 ft 25 kts 91°
2026-05-04 15:32 13.20513 77.72019 2929 ft 30 kts 93°
2026-05-04 15:33 13.20596 77.72282 2928 ft 14 kts
2026-05-04 15:34 13.20688 77.72198 2930 ft 0 kts 268°
2026-05-04 15:34 13.20688 77.72172 2931 ft 15 kts 269°
2026-05-04 15:34 13.20697 77.71014 2956 ft 141 kts 270°
2026-05-04 15:35 13.20796 77.68596 3595 ft 180 kts 269°
2026-05-04 15:35 13.20855 77.67287 4122 ft 187 kts 272°
2026-05-04 15:35 13.20864 77.66002 4424 ft 178 kts 270°
2026-05-04 15:36 13.20852 77.63245 4745 ft 212 kts 275°
2026-05-04 15:36 13.21364 77.61780 5003 ft 228 kts 308°
2026-05-04 15:36 13.22645 77.60734 5247 ft 248 kts 334°
2026-05-04 15:37 13.24261 77.59903 5552 ft 269 kts 329°
2026-05-04 15:37 13.25762 77.58745 6178 ft 276 kts 317°
2026-05-04 15:37 13.27069 77.57272 6746 ft 281 kts 309°
2026-05-04 15:37 13.28204 77.55630 6984 ft 283 kts 304°
2026-05-04 15:38 13.29339 77.53967 7447 ft 286 kts 316°
2026-05-04 15:38 13.30959 77.52848 8199 ft 285 kts 339°
2026-05-04 15:38 13.32843 77.52177 8878 ft 289 kts 342°
2026-05-04 15:38 13.34778 77.51525 9576 ft 294 kts 342°
2026-05-04 15:39 13.36742 77.50868 10233 ft 299 kts 342°
2026-05-04 15:39 13.38767 77.50189 10483 ft 320 kts 342°
2026-05-04 15:39 13.43257 77.48672 11173 ft 349 kts 342°
2026-05-04 15:40 13.45583 77.47881 11856 ft 352 kts 342°
2026-05-04 15:40 13.47893 77.47095 12511 ft 355 kts 342°
2026-05-04 15:40 13.50254 77.46292 13179 ft 359 kts 342°
2026-05-04 15:40 13.52646 77.45479 13730 ft 363 kts 342°
2026-05-04 15:41 13.55064 77.44657 14183 ft 367 kts 342°
2026-05-04 15:41 13.57502 77.43828 14830 ft 369 kts 342°
2026-05-04 15:41 13.59931 77.43002 15380 ft 373 kts 342°
2026-05-04 15:41 13.62414 77.42158 15934 ft 377 kts 342°
2026-05-04 15:42 13.64908 77.41310 16500 ft 380 kts 341°
2026-05-04 15:42 13.67430 77.40451 17036 ft 384 kts 341°
2026-05-04 15:42 13.69984 77.39582 17570 ft 388 kts 341°
2026-05-04 15:42 13.72530 77.38715 18090 ft 391 kts 341°
2026-05-04 15:43 13.75124 77.37832 18555 ft 395 kts 341°
2026-05-04 15:43 13.77745 77.36939 19033 ft 397 kts 341°
2026-05-04 15:43 13.80382 77.36041 19480 ft 400 kts 341°
2026-05-04 15:43 13.83039 77.35136 19927 ft 403 kts 341°
2026-05-04 15:44 13.85713 77.34225 20377 ft 405 kts 340°
2026-05-04 15:44 13.88391 77.33312 20803 ft 408 kts 340°
2026-05-04 15:44 13.91102 77.32388 21236 ft 411 kts 340°
2026-05-04 15:44 13.93823 77.31461 21652 ft 414 kts 340°
2026-05-04 15:45 13.96542 77.30533 22055 ft 416 kts 340°
2026-05-04 15:45 13.99325 77.29584 22451 ft 419 kts 340°
2026-05-04 15:45 14.02103 77.28636 22847 ft 422 kts 340°
2026-05-04 15:45 14.04897 77.27683 23228 ft 425 kts 340°
2026-05-04 15:46 14.07732 77.26716 23584 ft 428 kts 340°
2026-05-04 15:46 14.10559 77.25751 23913 ft 429 kts 340°
2026-05-04 15:46 14.13369 77.24791 24248 ft 431 kts 340°
2026-05-04 15:46 14.16217 77.23817 24556 ft 433 kts 340°
2026-05-04 15:47 14.19086 77.22837 24868 ft 435 kts 340°
2026-05-04 15:47 14.21963 77.21853 25181 ft 437 kts 340°
2026-05-04 15:47 14.24860 77.20862 25479 ft 438 kts 340°
2026-05-04 15:47 14.27762 77.19869 25776 ft 440 kts 340°
2026-05-04 15:48 14.30670 77.18874 26077 ft 442 kts 340°
2026-05-04 15:48 14.33582 77.17877 26354 ft 444 kts 340°
2026-05-04 15:48 14.39494 77.15853 26917 ft 447 kts 340°
2026-05-04 15:49 14.42450 77.14840 27173 ft 449 kts 339°
2026-05-04 15:49 14.45383 77.13835 27441 ft 450 kts 339°
2026-05-04 15:49 14.48376 77.12809 27695 ft 452 kts 340°
2026-05-04 15:49 14.51377 77.11780 27950 ft 454 kts 339°
2026-05-04 15:50 14.54338 77.10741 28194 ft 454 kts 336°
2026-05-04 15:50 14.57150 77.09246 28426 ft 453 kts 324°
2026-05-04 15:50 14.59581 77.07178 28644 ft 451 kts 311°
2026-05-04 15:50 14.61514 77.04643 28854 ft 450 kts 300°
2026-05-04 15:51 14.62972 77.01830 29069 ft 450 kts 296°
2026-05-04 15:51 14.64403 76.98946 29292 ft 452 kts 296°
2026-05-04 15:51 14.65829 76.96088 29514 ft 453 kts 296°
2026-05-04 15:51 14.67298 76.93156 29736 ft 455 kts 296°
2026-05-04 15:52 14.68758 76.90247 29945 ft 456 kts 296°
2026-05-04 15:52 14.70224 76.87329 30141 ft 458 kts 296°
2026-05-04 15:52 14.71696 76.84399 30325 ft 459 kts 296°
2026-05-04 15:52 14.73172 76.81458 30516 ft 461 kts 296°
2026-05-04 15:53 14.74643 76.78526 30711 ft 462 kts 296°
2026-05-04 15:53 14.76114 76.75593 30917 ft 464 kts 296°
2026-05-04 15:53 14.77602 76.72625 31153 ft 464 kts 296°
2026-05-04 15:53 14.79093 76.69649 31431 ft 463 kts 296°
2026-05-04 15:54 14.80577 76.66688 31694 ft 463 kts 296°
2026-05-04 15:54 14.82038 76.63770 31963 ft 462 kts 296°
2026-05-04 15:54 14.83520 76.60808 32223 ft 461 kts 296°
2026-05-04 15:54 14.84995 76.57860 32485 ft 461 kts 296°
2026-05-04 15:55 14.86467 76.54918 32742 ft 460 kts 296°
2026-05-04 15:55 14.87921 76.52009 32985 ft 459 kts 296°
2026-05-04 15:55 14.89396 76.49058 33221 ft 459 kts 296°
2026-05-04 15:55 14.90843 76.46162 33468 ft 458 kts 296°
2026-05-04 15:56 14.92303 76.43238 33706 ft 457 kts 296°
2026-05-04 15:56 14.93767 76.40305 33939 ft 457 kts 296°
2026-05-04 15:56 14.95227 76.37379 34135 ft 456 kts 296°
2026-05-04 15:56 14.96668 76.34489 34306 ft 456 kts 296°
2026-05-04 15:57 14.98122 76.31573 34491 ft 455 kts 296°
2026-05-04 15:57 14.99572 76.28664 34659 ft 455 kts 296°
2026-05-04 15:57 15.01023 76.25752 34833 ft 455 kts 296°
2026-05-04 15:57 15.02470 76.22845 34998 ft 454 kts 296°
2026-05-04 15:58 15.03922 76.19930 35165 ft 454 kts 296°
2026-05-04 15:58 15.05368 76.17023 35330 ft 454 kts 296°
2026-05-04 15:58 15.06813 76.14119 35505 ft 453 kts 296°
2026-05-04 15:58 15.08254 76.11220 35677 ft 453 kts 296°
2026-05-04 15:59 15.09695 76.08321 35847 ft 452 kts 296°
2026-05-04 15:59 15.11116 76.05462 36021 ft 452 kts 296°
2026-05-04 15:59 15.12570 76.02535 36194 ft 451 kts 296°
2026-05-04 15:59 15.13986 75.99682 36368 ft 451 kts 296°
2026-05-04 16:00 15.15456 75.96803 36535 ft 451 kts 297°
2026-05-04 16:00 15.16959 75.93956 36701 ft 450 kts 297°
2026-05-04 16:00 15.18471 75.91110 36862 ft 450 kts 297°
2026-05-04 16:00 15.19973 75.88273 37034 ft 450 kts 297°
2026-05-04 16:01 15.21473 75.85430 37188 ft 449 kts 297°
2026-05-04 16:01 15.22965 75.82590 37333 ft 449 kts 297°
2026-05-04 16:01 15.24456 75.79747 37489 ft 448 kts 297°
2026-05-04 16:01 15.25943 75.76910 37610 ft 448 kts 297°
2026-05-04 16:02 15.27432 75.74067 37751 ft 448 kts 297°
2026-05-04 16:02 15.28913 75.71239 37889 ft 447 kts 297°
2026-05-04 16:03 15.33350 75.62759 37938 ft 447 kts 297°
2026-05-04 16:03 15.36305 75.57106 37938 ft 447 kts 297°
2026-05-04 16:04 15.39269 75.51431 37938 ft 447 kts 297°
2026-05-04 16:04 15.43709 75.42924 37939 ft 447 kts 297°
2026-05-04 16:05 15.46650 75.37282 37942 ft 447 kts 297°
2026-05-04 16:06 15.50589 75.29721 37936 ft 448 kts 297°
2026-05-04 16:07 15.56503 75.18353 37938 ft 448 kts 297°
2026-05-04 16:08 15.62412 75.06976 37937 ft 448 kts 297°
2026-05-04 16:09 15.69789 74.92748 37935 ft 448 kts 297°
2026-05-04 16:10 15.75664 74.81396 37935 ft 448 kts 297°
2026-05-04 16:11 15.81550 74.70005 37934 ft 447 kts 297°
2026-05-04 16:12 15.90150 74.52847 37941 ft 446 kts 296°
2026-05-04 16:13 15.95719 74.41311 37945 ft 446 kts 296°
2026-05-04 16:14 16.01285 74.29812 37938 ft 447 kts 296°
2026-05-04 16:16 16.08274 74.15344 37932 ft 447 kts 296°
2026-05-04 16:17 16.15249 74.00877 37920 ft 448 kts 296°
2026-05-04 16:18 16.20819 73.89301 37915 ft 448 kts 296°
2026-05-04 16:19 16.27809 73.74821 37908 ft 448 kts 296°
2026-05-04 16:20 16.34802 73.60299 37891 ft 448 kts 296°
2026-05-04 16:22 16.41891 73.45876 37881 ft 448 kts 297°
2026-05-04 16:23 16.50452 73.28624 37876 ft 447 kts 297°
2026-05-04 16:25 16.59004 73.11327 37874 ft 447 kts 296°
2026-05-04 16:26 16.68673 72.91033 37870 ft 446 kts 296°
2026-05-04 16:28 16.75562 72.76523 37864 ft 446 kts 296°
2026-05-04 16:29 16.85166 72.56238 37861 ft 444 kts 296°
2026-05-04 16:31 16.91982 72.41804 37859 ft 443 kts 296°
2026-05-04 16:32 17.00138 72.24492 37857 ft 442 kts 296°
2026-05-04 16:33 17.05541 72.12997 37852 ft 441 kts 296°
2026-05-04 16:34 17.09594 72.04365 37856 ft 441 kts 296°
2026-05-04 16:35 17.17874 71.87195 37852 ft 441 kts 296°
2026-05-04 16:36 17.22013 71.78584 37851 ft 441 kts 296°
2026-05-04 16:37 17.26128 71.70009 37848 ft 441 kts 296°
2026-05-04 16:38 17.31621 71.58548 37850 ft 441 kts 296°
2026-05-04 16:39 17.38471 71.44222 37845 ft 441 kts 296°
2026-05-04 16:40 17.43964 71.32712 37851 ft 442 kts 296°
2026-05-04 16:41 17.50831 71.18290 37852 ft 442 kts 296°
2026-05-04 16:43 17.57671 71.03895 37855 ft 442 kts 296°
2026-05-04 16:43 17.61777 70.95237 37851 ft 442 kts 296°
2026-05-04 16:45 17.69978 70.77908 37853 ft 442 kts 296°
2026-05-04 16:46 17.76792 70.63475 37848 ft 441 kts 296°
2026-05-04 16:47 17.82207 70.51977 37845 ft 440 kts 296°
2026-05-04 16:48 17.87625 70.40446 37848 ft 440 kts 296°
2026-05-04 16:49 17.92581 70.29883 37845 ft 440 kts 296°
2026-05-04 16:50 17.97979 70.18354 37845 ft 440 kts 296°
2026-05-04 16:51 18.02023 70.09703 37843 ft 439 kts 296°
2026-05-04 16:52 18.07408 69.98165 37845 ft 439 kts 296°
2026-05-04 16:53 18.11424 69.89546 37851 ft 439 kts 296°
2026-05-04 16:54 18.16798 69.77993 37848 ft 439 kts 296°
2026-05-04 16:55 18.24845 69.60653 37852 ft 439 kts 296°
2026-05-04 16:56 18.31522 69.46228 37854 ft 439 kts 296°
2026-05-04 16:57 18.35517 69.37580 37854 ft 438 kts 296°
2026-05-04 16:58 18.40943 69.26084 37852 ft 438 kts 298°
2026-05-04 17:00 18.49678 69.09229 37840 ft 437 kts 298°
2026-05-04 17:01 18.56881 68.95139 37839 ft 437 kts 298°
2026-05-04 17:02 18.62636 68.83863 37832 ft 437 kts 298°
2026-05-04 17:03 18.66931 68.75432 37843 ft 437 kts 298°
2026-05-04 17:03 18.71241 68.66961 37838 ft 437 kts 298°
2026-05-04 17:04 18.76980 68.55662 37847 ft 437 kts 298°
2026-05-04 17:05 18.82706 68.44367 37847 ft 437 kts 298°
2026-05-04 17:06 18.87003 68.35880 37844 ft 437 kts 298°
2026-05-04 17:07 18.90818 68.28331 37846 ft 437 kts 298°
2026-05-04 17:07 18.94144 68.21745 37847 ft 437 kts 298°
2026-05-04 17:08 18.98432 68.13244 37818 ft 437 kts 297°
2026-05-04 17:09 19.01297 68.07556 37820 ft 438 kts 297°
2026-05-04 17:09 19.04160 68.01865 37825 ft 438 kts 297°
2026-05-04 17:10 19.11430 67.87700 37828 ft 440 kts 298°
2026-05-04 17:11 19.14364 67.82008 37837 ft 441 kts 298°
2026-05-04 17:12 19.18769 67.73440 37839 ft 442 kts 298°
2026-05-04 17:13 19.26080 67.59187 37826 ft 440 kts 298°
2026-05-04 17:14 19.31930 67.47755 37830 ft 441 kts 298°
2026-05-04 17:15 19.36308 67.39188 37834 ft 441 kts 298°
2026-05-04 17:16 19.42152 67.27731 37831 ft 442 kts 298°
2026-05-04 17:17 19.47978 67.16287 37832 ft 442 kts 297°
2026-05-04 17:18 19.53818 67.04794 37837 ft 442 kts 297°
2026-05-04 17:19 19.59647 66.93300 37830 ft 442 kts 297°
2026-05-04 17:20 19.65444 66.81845 37833 ft 442 kts 297°
2026-05-04 17:20 19.69799 66.73225 37817 ft 442 kts 297°
2026-05-04 17:21 19.75599 66.61726 37817 ft 441 kts 297°
2026-05-04 17:22 19.78492 66.55981 37823 ft 441 kts 297°
2026-05-04 17:23 19.84253 66.44524 37811 ft 440 kts 297°
2026-05-04 17:24 19.88578 66.35907 37813 ft 440 kts 297°
2026-05-04 17:25 19.94341 66.24406 37811 ft 440 kts 297°
2026-05-04 17:26 20.00076 66.12938 37810 ft 440 kts 297°
2026-05-04 17:27 20.07258 65.98542 37816 ft 441 kts 297°
2026-05-04 17:28 20.12995 65.87018 37815 ft 441 kts 297°
2026-05-04 17:29 20.21594 65.69700 37814 ft 441 kts 297°
2026-05-04 17:31 20.28727 65.55294 37812 ft 440 kts 297°
2026-05-04 17:32 20.35857 65.40858 37805 ft 440 kts 297°
2026-05-04 17:33 20.41524 65.29356 37805 ft 439 kts 297°
2026-05-04 17:34 20.46731 65.18767 37804 ft 438 kts 297°
2026-05-04 17:35 20.53777 65.04410 37802 ft 438 kts 297°
2026-05-04 17:36 20.56601 64.98653 37803 ft 437 kts 297°
2026-05-04 17:36 20.59461 64.92924 37797 ft 437 kts 297°
2026-05-04 17:37 20.62328 64.87203 37795 ft 437 kts 297°
2026-05-04 17:37 20.65189 64.81477 37799 ft 437 kts 297°
2026-05-04 17:38 20.68044 64.75752 37797 ft 436 kts 297°
2026-05-04 17:38 20.70895 64.70027 37799 ft 436 kts 297°
2026-05-04 17:39 20.75149 64.61472 37796 ft 436 kts 297°
2026-05-04 17:39 20.77989 64.55755 37798 ft 435 kts 297°
2026-05-04 17:40 20.80828 64.50033 37800 ft 435 kts 297°
2026-05-04 17:40 20.83662 64.44315 37799 ft 435 kts 297°
2026-05-04 17:41 20.86491 64.38603 37794 ft 434 kts 297°
2026-05-04 17:41 20.89319 64.32886 37792 ft 434 kts 297°
2026-05-04 17:42 20.92124 64.27209 37797 ft 434 kts 297°
2026-05-04 17:42 20.94942 64.21498 37792 ft 434 kts 297°
2026-05-04 17:43 20.97760 64.15783 37794 ft 433 kts 297°
2026-05-04 17:43 21.00575 64.10069 37790 ft 433 kts 297°
2026-05-04 17:44 21.03383 64.04363 37788 ft 433 kts 297°
2026-05-04 17:44 21.06184 63.98664 37786 ft 433 kts 297°
2026-05-04 17:45 21.08967 63.92996 37788 ft 432 kts 297°
2026-05-04 17:45 21.11762 63.87297 37785 ft 432 kts 297°
2026-05-04 17:46 21.14558 63.81590 37785 ft 432 kts 297°
2026-05-04 17:46 21.17354 63.75878 37785 ft 432 kts 297°
2026-05-04 17:47 21.20147 63.70167 37786 ft 432 kts 297°
2026-05-04 17:47 21.22938 63.64451 37783 ft 433 kts 297°
2026-05-04 17:48 21.25725 63.58739 37784 ft 433 kts 297°
2026-05-04 17:48 21.27571 63.54953 37782 ft 433 kts 297°